Location: Mason Neck State Park
(38.6428°N, 77.1981°W)
Time: 14:11:07
(UTC-04:00)

ISS - Visible Passes

Search period start: 01 September 2015 00:00
Search period end: 11 September 2015 00:00
Orbit: 400 x 402 km, 51.6° (Epoch: 01 September)

Date Brightness Start Highest point End Pass type
(mag) Time Alt. Az. Time Alt. Az. Time Alt. Az.
06 Sep -0.9 06:15:54 10° S 06:18:23 21° SE 06:20:56 10° E visible
07 Sep -0.2 05:25:01 10° SE 05:25:17 10° SE 05:25:42 10° ESE visible
08 Sep -2.6 06:04:53 10° SW 06:08:03 51° SE 06:11:15 10° ENE visible
09 Sep -1.4 05:13:31 18° S 05:14:53 24° SE 05:17:37 10° ENE visible
10 Sep -0.2 04:22:46 11° ESE 04:22:46 11° ESE 04:23:12 10° ESE visible
10 Sep -3.2 05:55:22 16° WSW 05:57:51 62° NW 06:01:05 10° NE visible
